When you browse on this site, cookies collect data to enhance your experience and personalize the content and advertising you see.
Visit our Privacy Policy to learn more. By continuing to use the site, you agree to this use of cookies and data.
  • In Lithuania
  • List of Countries
  • For 7 days
  • Water Temperature
  • Satellite Maps
  • Weather Map
  • Weather Widgets
  • user-avatar
    Login

    Hourly Weather Biskira

    Today, 21 July, Sunday

    Time Temperature Precipitation Wind Pressure Humidity
    00:00 +32°C° 0 mm 0 mps 753 mmHg 30%
    01:00 +34°C° 0.1 mm 1 mps 753 mmHg 30%
    02:00 +35°C° 0.1 mm 2 mps 753 mmHg 29%
    03:00 +35°C° 0.1 mm 3 mps 752 mmHg 29%
    04:00 +34°C° 0 mm 3 mps 752 mmHg 31%
    05:00 +34°C° 0 mm 4 mps 753 mmHg 34%
    06:00 +33°C° 0 mm 5 mps 753 mmHg 38%
    07:00 +34°C° 0 mm 5 mps 753 mmHg 35%
    08:00 +35°C° 0 mm 5 mps 753 mmHg 32%
    09:00 +37°C° 0 mm 5 mps 754 mmHg 28%
    10:00 +38°C° 0 mm 4 mps 753 mmHg 26%
    11:00 +40°C° 0 mm 4 mps 753 mmHg 23%
    12:00 +40°C° 0 mm 3 mps 753 mmHg 21%
    13:00 +42°C° 0 mm 3 mps 753 mmHg 19%
    14:00 +42°C° 0 mm 2 mps 752 mmHg 18%
    15:00 +42°C° 0 mm 1 mps 752 mmHg 17%
    16:00 +42°C° 0 mm 3 mps 752 mmHg 18%
    17:00 +41°C° 0 mm 5 mps 752 mmHg 18%
    18:00 +41°C° 0 mm 7 mps 752 mmHg 19%
    19:00 +40°C° 0 mm 5 mps 753 mmHg 20%
    20:00 +40°C° 0 mm 4 mps 753 mmHg 20%
    21:00 +38°C° 0 mm 2 mps 753 mmHg 21%
    22:00 +37°C° 0 mm 3 mps 754 mmHg 23%
    23:00 +37°C° 0 mm 4 mps 754 mmHg 25%

    Tomorrow, 22 July, Monday

    Time Temperature Precipitation Wind Pressure Humidity
    00:00 +36°C° 0 mm 4 mps 754 mmHg 28%
    01:00 +35°C° 0 mm 5 mps 754 mmHg 31%
    02:00 +33°C° 0 mm 5 mps 754 mmHg 35%
    03:00 +32°C° 0 mm 5 mps 754 mmHg 39%
    04:00 +32°C° 0 mm 5 mps 754 mmHg 39%
    05:00 +32°C° 0 mm 5 mps 754 mmHg 38%
    06:00 +30°C° 0 mm 4 mps 755 mmHg 38%
    07:00 +33°C° 0 mm 4 mps 755 mmHg 35%
    08:00 +34°C° 0 mm 5 mps 755 mmHg 33%
    09:00 +35°C° 0 mm 5 mps 756 mmHg 30%
    10:00 +36°C° 0 mm 5 mps 755 mmHg 28%
    11:00 +37°C° 0 mm 5 mps 755 mmHg 26%
    12:00 +39°C° 0 mm 5 mps 755 mmHg 24%
    13:00 +40°C° 0 mm 4 mps 754 mmHg 23%
    14:00 +39°C° 0 mm 3 mps 754 mmHg 22%
    15:00 +40°C° 0 mm 2 mps 753 mmHg 21%
    16:00 +40°C° 0 mm 2 mps 753 mmHg 21%
    17:00 +40°C° 0 mm 2 mps 753 mmHg 21%
    18:00 +40°C° 0 mm 3 mps 753 mmHg 21%
    19:00 +39°C° 0 mm 2 mps 753 mmHg 22%
    20:00 +38°C° 0 mm 2 mps 753 mmHg 24%
    21:00 +37°C° 0 mm 2 mps 754 mmHg 26%
    22:00 +36°C° 0 mm 3 mps 754 mmHg 27%
    23:00 +35°C° 0 mm 5 mps 754 mmHg 28%

    Day after tomorrow, 23 July, Tuesday

    Time Temperature Precipitation Wind Pressure Humidity
    00:00 +34°C° 0 mm 7 mps 754 mmHg 28%
    01:00 +33°C° 0 mm 6 mps 754 mmHg 29%
    02:00 +32°C° 0 mm 4 mps 754 mmHg 30%
    03:00 +30°C° 0 mm 3 mps 753 mmHg 31%
    04:00 +30°C° 0 mm 3 mps 754 mmHg 31%
    05:00 +30°C° 0 mm 2 mps 754 mmHg 30%
    06:00 +30°C° 0 mm 2 mps 754 mmHg 30%
    07:00 +31°C° 0 mm 2 mps 754 mmHg 28%
    08:00 +33°C° 0 mm 3 mps 754 mmHg 26%
    09:00 +35°C° 0 mm 3 mps 754 mmHg 24%
    10:00 +36°C° 0 mm 3 mps 754 mmHg 22%
    11:00 +37°C° 0 mm 3 mps 754 mmHg 20%
    12:00 +38°C° 0 mm 3 mps 753 mmHg 19%
    13:00 +38°C° 0 mm 3 mps 753 mmHg 18%
    14:00 +39°C° 0 mm 2 mps 752 mmHg 18%
    15:00 +40°C° 0 mm 2 mps 752 mmHg 17%
    16:00 +40°C° 0 mm 2 mps 751 mmHg 17%
    17:00 +39°C° 0 mm 2 mps 751 mmHg 17%
    18:00 +39°C° 0 mm 3 mps 751 mmHg 17%
    19:00 +39°C° 0 mm 3 mps 751 mmHg 18%
    20:00 +38°C° 0 mm 3 mps 752 mmHg 19%
    21:00 +37°C° 0 mm 3 mps 752 mmHg 20%
    22:00 +36°C° 0 mm 2 mps 752 mmHg 20%
    23:00 +35°C° 0 mm 2 mps 752 mmHg 20%

    24 July, Wednesday

    Time Temperature Precipitation Wind Pressure Humidity
    00:00 +34°C° 0 mm 2 mps 752 mmHg 19%
    01:00 +34°C° 0 mm 2 mps 752 mmHg 19%
    02:00 +32°C° 0 mm 2 mps 752 mmHg 19%
    03:00 +31°C° 0 mm 3 mps 751 mmHg 18%
    04:00 +31°C° 0 mm 3 mps 752 mmHg 20%
    05:00 +31°C° 0 mm 3 mps 752 mmHg 22%
    06:00 +31°C° 0 mm 3 mps 752 mmHg 23%
    07:00 +33°C° 0 mm 3 mps 752 mmHg 22%
    08:00 +35°C° 0 mm 3 mps 752 mmHg 22%
    09:00 +36°C° 0 mm 4 mps 753 mmHg 21%
    10:00 +37°C° 0 mm 3 mps 752 mmHg 19%
    11:00 +38°C° 0 mm 3 mps 752 mmHg 18%
    12:00 +39°C° 0 mm 3 mps 752 mmHg 16%
    13:00 +40°C° 0 mm 3 mps 751 mmHg 16%
    14:00 +40°C° 0 mm 2 mps 751 mmHg 15%
    15:00 +41°C° 0 mm 2 mps 750 mmHg 15%
    16:00 +41°C° 0 mm 2 mps 750 mmHg 15%
    17:00 +41°C° 0 mm 2 mps 750 mmHg 15%
    18:00 +41°C° 0 mm 2 mps 750 mmHg 15%
    19:00 +40°C° 0 mm 2 mps 750 mmHg 16%
    20:00 +39°C° 0 mm 2 mps 750 mmHg 17%
    21:00 +37°C° 0 mm 2 mps 751 mmHg 18%
    22:00 +36°C° 0 mm 1 mps 750 mmHg 19%
    23:00 +35°C° 0 mm 1 mps 750 mmHg 20%

    25 July, Thursday

    Time Temperature Precipitation Wind Pressure Humidity
    00:00 +34°C° 0 mm 1 mps 750 mmHg 20%
    01:00 +33°C° 0 mm 1 mps 750 mmHg 21%
    02:00 +34°C° 0 mm 2 mps 750 mmHg 21%
    03:00 +32°C° 0 mm 2 mps 750 mmHg 21%
    04:00 +34°C° 0 mm 2 mps 750 mmHg 20%
    05:00 +34°C° 0 mm 2 mps 751 mmHg 20%
    06:00 +34°C° 0 mm 2 mps 751 mmHg 20%
    07:00 +36°C° 0 mm 3 mps 751 mmHg 18%
    08:00 +37°C° 0 mm 3 mps 752 mmHg 17%
    09:00 +38°C° 0 mm 4 mps 752 mmHg 16%
    10:00 +40°C° 0 mm 4 mps 751 mmHg 15%
    11:00 +41°C° 0 mm 4 mps 751 mmHg 14%
    12:00 +42°C° 0 mm 3 mps 751 mmHg 13%
    13:00 +43°C° 0 mm 3 mps 750 mmHg 12%
    14:00 +44°C° 0 mm 3 mps 749 mmHg 12%
    15:00 +43°C° 0 mm 2 mps 749 mmHg 11%
    16:00 +44°C° 0 mm 3 mps 749 mmHg 11%
    17:00 +44°C° 0 mm 3 mps 749 mmHg 11%
    18:00 +44°C° 0 mm 3 mps 748 mmHg 11%
    19:00 +42°C° 0 mm 3 mps 749 mmHg 12%
    20:00 +40°C° 0 mm 3 mps 749 mmHg 13%
    21:00 +39°C° 0 mm 3 mps 749 mmHg 14%
    22:00 +38°C° 0 mm 2 mps 749 mmHg 15%
    23:00 +37°C° 0 mm 2 mps 749 mmHg 16%

    26 July, Friday

    Time Temperature Precipitation Wind Pressure Humidity
    00:00 +35°C° 0 mm 1 mps 749 mmHg 17%
    01:00 +34°C° 0 mm 1 mps 749 mmHg 18%
    02:00 +34°C° 0 mm 1 mps 749 mmHg 18%
    03:00 +35°C° 0 mm 2 mps 749 mmHg 18%
    04:00 +35°C° 0 mm 2 mps 749 mmHg 18%
    05:00 +35°C° 0 mm 2 mps 749 mmHg 18%
    06:00 +36°C° 0 mm 2 mps 749 mmHg 17%
    07:00 +37°C° 0 mm 3 mps 749 mmHg 16%
    08:00 +39°C° 0 mm 3 mps 749 mmHg 15%
    09:00 +41°C° 0 mm 4 mps 749 mmHg 14%
    10:00 +42°C° 0 mm 3 mps 749 mmHg 13%
    11:00 +42°C° 0 mm 2 mps 749 mmHg 12%
    12:00 +43°C° 0 mm 1 mps 749 mmHg 11%
    13:00 +44°C° 0 mm 1 mps 748 mmHg 11%
    14:00 +46°C° 0 mm 2 mps 748 mmHg 11%
    15:00 +46°C° 0 mm 2 mps 747 mmHg 10%
    16:00 +46°C° 0 mm 3 mps 747 mmHg 10%
    17:00 +46°C° 0 mm 3 mps 747 mmHg 11%
    18:00 +47°C° 0 mm 4 mps 747 mmHg 11%
    19:00 +45°C° 0 mm 4 mps 747 mmHg 12%
    20:00 +44°C° 0 mm 3 mps 748 mmHg 13%
    21:00 +42°C° 0 mm 3 mps 748 mmHg 14%
    22:00 +40°C° 0 mm 3 mps 748 mmHg 16%
    23:00 +41°C° 0 mm 4 mps 748 mmHg 17%
    Show more